Погода в Богураеве

Россия / Ростовская область     48°08′50″N   40°42′10″E
темп.,
°C
ветер,
м/с
пор.,
м/с
влажн.,
%
обл.,
%
осадки,
мм/ч
давл.,
гПа
погр.,
м
17 мая, пн
пн1700:00+21вюв7184029 0.0 1007461
03:00+17вюв6174718 0.0 1007360
06:00+17вюв5175841 0.0 1007422
09:00+22юв814485 0.0 1007918
12:00+25юв812420 0.0 10071273
15:00+27ююв710410 0.0 10061775
18:00+26зюз235425 0.0 1005120
21:00+20зсз347294 0.0 100760
18 мая, вт
вт1800:00+17зсз3779100 0.0 1008157
03:00+16з3688100 0.0 1008149
06:00+16юз4889100 0.0 1009405
09:00+18зюз457596 0.0 1009551
12:00+21ююз5561100 0.0 10091393
15:00+19ю346977 0.8 1010799
18:00+19юз4772100 0.4 1009277
21:00+16ююз338099 0.4 101041
19 мая, ср
ср1900:00+14юз22853 0.0 101022
03:00+13ююв228437 0.0 100911
06:00+15вюв238282 0.0 100995
09:00+19ю4667100 0.1 1008727
12:00+15юз51285100 1.7 1010817
15:00+14ю3591100 4.5 1011384
18:00+17ююз4777100 1.3 1010832
21:00+13ююз4108935 1.4 1011281
20 мая, чт
чт2000:00+12ююз411945 0.0 1011338
03:00+11ююз4129699 0.1 1011463
06:00+13ююз6129194 0.4 1011716
09:00+16юз9127356 0.6 10111282
12:00+19юз81161100 0.4 10121758
15:00+19зюз695961 0.4 10121687
18:00+19юз4762100 0.0 1013617
21:00+14ююз3476100 0.0 101457
21 мая, пт
пт2100:00+13ю227935 0.0 101412
03:00+12вюв22875 0.0 101416
06:00+14вюв398584 0.0 1014254
09:00+20юв595754 0.0 1013669
12:00+23ююв6752100 0.0 1013798
15:00+25юв465198 0.1 1012935
18:00+25в356181 0.0 1011209
21:00+20всв337450 0.0 101132